Regional Weather Roundup
Issued by NWS

Home | Current Version | Previous Version | Text Only | Print | Product List | Glossary On
Versions: 1 2 3 4 5 6 7 8 9 10 11 12 13 14 15 16 17 18 19 20 21 22 23 24 25 26 27 28 29 30 31 32 33 34 35 36 37 38 39 40 41 42 43 44 45 46 47 48 49 50
000
ASUS43 KFSD 260910
RWRSD

WEATHER ROUNDUP FOR SOUTH DAKOTA
NATIONAL WEATHER SERVICE SIOUX FALLS SD
400 AM CDT TUE SEP 26 2017

NOTE: "FAIR" INDICATES FEW OR NO CLOUDS BELOW 12,000 FEET WITH NO
SIGNIFICANT WEATHER AND/OR OBSTRUCTIONS TO VISIBILITY.


SDZ001>005-009-010-012>017-261000-
NORTHWEST AND NORTH CENTRAL SOUTH DAKOTA

CITY           SKY/WX    TMP DP  RH WIND       PRES   REMARKS
BUFFALO          N/A     46  44  93 SW6       30.02F
FAITH            N/A     45  45 100 S8        30.09F
MOBRIDGE       CLOUDY    45  42  89 NE3       30.08S
$$

SDZ012>016-024>037-041>051-057-063-072>074-261000-
SOUTHWEST AND SOUTH CENTRAL SOUTH DAKOTA

CITY           SKY/WX    TMP DP  RH WIND       PRES   REMARKS
RAPID CTY ARPT NOT AVBL
PIERRE         PTCLDY    44  42  93 W5        30.09R
CUSTER         CLOUDY    39  36  89 CALM      30.11S
ELLSWORTH AFB  CLOUDY    46  46 100 S14       30.08
PHILIP         CLOUDY    43  43 100 W5        30.12F
PINE RIDGE     LGT RAIN  43  42  97 S3        30.14S
SPEARFISH      FAIR      41  41 100 CALM      30.09S FOG
WINNER         FAIR      45  44  97 W5        30.10F FOG
$$

SDZ004>011-016>023-039-040-261000-
NORTHEAST SOUTH DAKOTA

CITY           SKY/WX    TMP DP  RH WIND       PRES   REMARKS
ABERDEEN       LGT RAIN  48  48 100 NW9       30.07S FOG
WATERTOWN      CLOUDY    48  48 100 N7        30.01S
SISSETON         N/A     50  50 100 N7        30.01F
$$

SDZ017-020-022-023-036>040-048>070-261000-
SOUTHEAST SOUTH DAKOTA

CITY           SKY/WX    TMP DP  RH WIND       PRES   REMARKS
SIOUX FALLS    LGT RAIN  51  51 100 N7        30.01S
HURON          CLOUDY    48  48 100 NW8       30.06F
CHAMBERLAIN    CLOUDY    50  50 100 NW5       30.09F
MITCHELL       CLOUDY    50  48  93 NW12      30.07S
YANKTON        LGT RAIN  51  50  96 NW13      30.05R
$$

ABBREVIATIONS USED IN REMARKS
   TC - TEMPERATURE IN CELSIUS
  WCI - WIND CHILL INDEX
   HX - HEAT INDEX
  VSB - VISIBILITY




USA.gov is the U.S. government's official web portal to all federal, state and local government web resources and services.